TimeCST,TemperatureF,Dew PointF,Humidity,Sea Level PressureIn,VisibilityMPH,Wind Direction,Wind SpeedMPH,Gust SpeedMPH,PrecipitationIn,Events,Conditions,WindDirDegrees,DateUTC
12:00 AM,-23,-29,58,30.43,15,WNW,2.3,,,,Partly Cloudy,290,2012-11-26 06:00:00
12:00 AM,-23.8,-29.2,76,30.43,15.0,WNW,2.3,-,N/A,,Clear,290,2012-11-26 06:00:00
1:00 AM,-27.4,-34.6,69,30.43,15.0,WNW,2.3,-,N/A,,Clear,290,2012-11-26 07:00:00
2:00 AM,-27.4,-34.6,69,30.44,15.0,West,2.3,-,N/A,,Clear,270,2012-11-26 08:00:00
3:00 AM,-29.2,-31.0,91,30.44,15.0,West,3.5,-,N/A,,Clear,280,2012-11-26 09:00:00
4:00 AM,-31.0,-36.4,75,30.43,15.0,West,2.3,-,N/A,,Clear,270,2012-11-26 10:00:00
5:00 AM,-31.0,-38.2,68,30.43,15.0,Calm,Calm,-,N/A,,Clear,0,2012-11-26 11:00:00
6:00 AM,-32,-41,43,30.41,15,West,2.3,,,,,270,2012-11-26 12:00:00
6:00 AM,-31.0,-40.0,62,30.41,15.0,West,3.5,-,N/A,,Clear,270,2012-11-26 12:00:00
7:00 AM,-32.8,-41.8,62,30.41,15.0,Calm,Calm,-,N/A,,Clear,0,2012-11-26 13:00:00
8:00 AM,-34.6,-38.2,82,30.40,15.0,Calm,Calm,-,N/A,,Partly Cloudy,0,2012-11-26 14:00:00
9:00 AM,-34.6,-40.0,75,30.40,15.0,Calm,Calm,-,N/A,,Mostly Cloudy,0,2012-11-26 15:00:00
10:00 AM,-27.4,-34.6,69,30.38,15.0,Calm,Calm,-,N/A,,Mostly Cloudy,0,2012-11-26 16:00:00
11:00 AM,-20.2,-27.4,69,30.37,15.0,Calm,Calm,-,N/A,,Mostly Cloudy,0,2012-11-26 17:00:00
12:00 PM,-17,-23,62,30.35,15,Calm,Calm,,,Snow,Snow,,2012-11-26 18:00:00
12:00 PM,-16.6,-22.0,76,30.35,15.0,Calm,Calm,-,N/A,,Mostly Cloudy,0,2012-11-26 18:00:00
1:00 PM,-11.2,-16.6,77,30.32,15.0,Calm,Calm,-,N/A,,Mostly Cloudy,0,2012-11-26 19:00:00
2:00 PM,-13.0,-18.4,77,30.30,15.0,Calm,Calm,-,N/A,,Mostly Cloudy,0,2012-11-26 20:00:00
3:00 PM,-9.4,-14.8,77,30.28,15.0,ESE,2.3,-,N/A,,Overcast,120,2012-11-26 21:00:00
3:50 PM,-9999,-9999,N/A,-9999,12.0,Calm,Calm,-,N/A,,Unknown,0,2012-11-26 21:50:00
4:00 PM,-9.4,-14.8,77,30.25,12.0,Calm,Calm,-,N/A,Snow,Light Snow,0,2012-11-26 22:00:00
5:00 PM,-9.4,-20.2,59,30.24,10.0,East,2.3,-,N/A,Snow,Light Snow,90,2012-11-26 23:00:00
6:00 PM,-10,-17,56,30.22,6,East,2.3,,,Snow,Light Snow,90,2012-11-27 00:00:00
6:00 PM,-9.4,-16.6,71,30.22,6.0,East,2.3,-,N/A,Snow,Light Snow,90,2012-11-27 00:00:00
7:00 PM,-14.8,-20.2,77,30.22,15.0,Calm,Calm,-,N/A,,Mostly Cloudy,0,2012-11-27 01:00:00
8:00 PM,-11.2,-18.4,70,30.20,6.0,NE,2.3,-,N/A,Snow,Light Snow,40,2012-11-27 02:00:00
10:00 PM,-13.0,-16.6,84,30.17,10.0,Calm,Calm,-,N/A,Snow,Light Snow,0,2012-11-27 04:00:00
11:00 PM,-18.4,-25.6,70,30.16,15.0,Calm,Calm,-,N/A,Snow,Light Snow,0,2012-11-27 05:00:00